Theta_e
316 317 318 311 309 308 311 315 312 311 307 304 303 303 303 302 304 304 302 302 301 301 306 311 313 315 313 318 313 313 313 316 314 314 317 318 319 320 319 318 319 323 325 324 326 327 327 327 328
316 317 314 304 307 309 311 311 314 311 305 302 302 303 302 303 302 301 302 301 299 301 305 310 311 312 312 311 311 312 312 310 311 311 313 314 317 316 316 316 318 318 320 322 323 323 326 326 326
316 313 307 305 305 308 311 310 310 307 304 304 303 300 301 302 301 301 299 298 298 300 304 308 310 308 309 310 309 308 308 308 307 308 309 309 310 313 313 314 314 316 318 318 321 321 322 323 324
316 307 301 306 310 309 309 309 307 305 304 302 300 301 300 300 300 300 297 296 297 300 304 306 307 307 307 307 306 305 305 305 304 305 305 306 307 307 309 311 313 314 316 317 318 320 320 320 321
310 302 304 305 307 306 306 306 306 306 304 303 302 301 300 299 298 297 295 295 297 301 300 297 305 304 305 304 303 303 303 302 302 302 302 303 304 305 305 306 308 312 313 315 316 317 318 318 318
306 301 305 306 306 305 304 305 305 303 302 302 300 299 299 298 297 295 294 294 295 300 300 296 298 302 302 302 301 301 300 300 299 300 300 300 300 301 302 303 304 306 309 312 312 314 316 316 315
307 304 304 303 305 307 305 303 303 302 302 302 298 299 297 297 295 294 293 293 294 298 300 296 296 295 295 298 298 298 298 298 297 296 297 295 295 298 298 300 301 303 305 306 309 311 312 314 313
304 302 304 305 304 307 304 302 301 301 302 299 299 297 296 296 295 293 293 293 293 295 298 298 294 294 294 294 294 294 295 295 293 291 291 292 292 292 293 294 299 301 302 303 305 307 309 310 310
305 305 305 305 304 305 301 302 299 297 298 296 296 296 295 295 294 293 293 292 293 293 295 295 295 295 295 294 294 293 293 291 290 289 289 288 289 291 292 294 297 298 299 300 301 304 305 306 307
307 307 306 304 302 302 301 302 299 298 296 296 294 293 294 294 294 293 292 291 293 294 294 294 294 295 294 294 294 293 293 290 288 288 288 287 287 289 290 291 294 295 296 297 298 300 301 303 305
304 307 305 304 303 301 301 300 299 297 299 294 293 292 292 292 292 292 291 291 293 294 294 294 294 293 293 294 294 293 291 289 288 288 288 287 287 286 288 290 292 293 293 294 295 297 299 300 304
304 301 303 303 302 302 302 299 299 299 299 296 292 292 292 291 291 291 291 291 294 294 293 292 293 293 292 293 293 293 290 289 288 287 287 286 286 286 286 288 291 292 292 292 294 295 296 298 301
303 303 301 301 300 300 300 300 299 298 294 292 292 292 290 290 291 291 291 291 293 293 293 292 292 292 291 291 291 291 290 289 288 288 287 286 285 285 285 286 289 290 291 292 293 294 295 297 299
300 301 301 300 300 301 300 299 300 297 292 291 291 290 290 290 291 291 291 291 293 293 293 292 292 291 290 290 290 290 290 289 288 288 287 286 285 285 285 285 286 288 290 291 292 292 294 295 297
300 302 301 301 302 301 299 302 299 296 291 291 291 289 289 290 291 291 291 291 292 293 293 292 291 291 290 290 289 289 289 288 286 286 286 286 285 285 285 285 285 286 288 290 290 292 292 294 295
301 300 302 302 302 300 299 300 298 294 291 291 290 288 289 289 291 291 291 291 292 293 292 292 291 291 290 289 289 289 288 287 285 285 285 285 285 284 284 284 285 285 286 288 289 290 291 293 294
298 301 300 302 300 300 299 299 299 294 292 292 289 288 289 288 290 291 291 291 292 292 292 291 291 290 289 289 288 288 287 286 285 284 284 284 284 284 284 284 284 285 286 286 288 290 291 292 293
300 301 301 300 300 300 300 298 299 296 294 294 290 288 288 288 288 291 291 291 292 292 291 291 291 290 289 289 288 287 286 285 284 284 283 283 283 284 284 284 284 285 285 285 286 288 290 291 292
298 301 301 300 299 300 299 299 297 296 295 296 291 290 289 289 291 291 291 291 291 291 291 291 291 289 289 288 286 286 285 284 284 283 282 283 283 283 283 283 283 284 285 285 285 287 289 290 291
301 302 301 300 300 299 299 298 298 296 297 297 297 293 291 289 288 290 290 290 290 291 291 290 290 288 288 286 285 285 284 284 283 282 282 283 282 281 281 282 282 283 284 285 285 286 287 289 290
301 301 300 302 299 299 298 298 298 297 296 297 297 296 293 291 290 288 289 289 290 290 290 290 289 288 287 285 285 285 284 283 283 282 282 282 282 281 281 281 282 282 283 283 284 285 286 287 289
302 301 300 299 299 300 297 301 298 299 297 297 297 294 293 291 290 289 288 289 290 290 290 289 288 287 286 285 284 283 282 281 281 281 281 282 282 281 281 281 281 282 283 283 284 284 285 286 288
301 299 299 299 299 300 300 297 298 299 299 298 297 296 293 291 290 288 288 289 290 290 289 289 287 286 285 284 283 283 282 281 281 281 281 282 281 280 280 280 280 281 282 283 284 284 284 285 286
298 299 299 297 298 295 298 298 298 298 300 300 297 296 293 291 290 289 289 289 290 289 289 288 287 285 284 283 282 282 281 281 280 278 278 278 277 277 278 279 280 280 281 282 283 284 283 284 285
298 299 294 296 292 299 296 299 299 298 297 298 299 295 292 291 289 287 287 288 289 288 288 287 286 284 283 282 282 281 280 279 278 276 276 276 275 276 276 276 279 279 281 282 283 283 283 284 284
299 299 300 296 297 300 297 300 302 299 297 295 296 295 291 289 288 288 288 288 288 288 287 286 285 283 282 282 281 280 279 277 276 275 276 275 274 274 274 275 277 278 280 281 282 282 283 283 283
300 299 298 292 284 295 302 300 299 298 296 296 295 293 290 289 288 287 288 288 287 287 287 286 284 283 282 281 280 279 278 277 276 275 276 275 274 275 275 275 276 278 280 280 281 281 282 282 283
297 296 298 293 295 295 299 300 302 302 301 296 295 292 290 289 287 287 288 287 287 287 286 285 284 283 281 280 279 278 277 276 275 275 276 275 274 275 275 275 276 278 279 280 280 281 281 282 283
296 296 296 297 298 299 298 304 299 300 298 299 296 292 290 289 288 287 288 286 286 286 285 284 283 282 280 279 278 277 276 276 274 275 274 274 274 275 274 275 275 278 279 280 280 280 281 282 282
296 297 297 297 297 296 297 300 299 299 297 296 296 293 289 289 287 287 287 285 284 285 284 283 282 281 279 278 277 277 276 275 274 275 274 273 273 274 274 274 275 278 278 279 279 279 280 281 281
Wind_Speed
10 8 5 9 5 6 3 3 3 1 4 5 4 10 9 4 3 4 1 16 17 19 18 23 21 21 24 25 27 26 28 29 28 29 28 28 27 29 29 29 29 30 29 29 29 28 28 27 25
8 5 7 3 5 4 3 2 6 5 7 7 5 3 7 3 2 4 5 15 16 17 17 23 21 21 22 23 26 26 27 27 27 28 28 27 28 28 28 28 29 28 29 29 30 30 29 28 28
8 9 4 4 4 4 5 4 5 5 7 0 4 6 3 2 3 4 9 12 13 18 18 21 19 22 22 24 25 26 27 28 30 30 29 28 28 29 28 28 29 30 29 29 29 30 30 29 29
3 9 5 4 3 2 6 5 6 8 3 6 4 7 3 7 3 6 7 11 14 18 19 19 19 22 23 24 27 28 30 30 32 32 31 30 29 29 29 30 29 30 31 29 30 30 30 30 29
9 4 5 4 2 2 3 6 6 6 4 2 1 4 3 6 12 9 10 12 17 18 20 21 19 21 23 25 27 27 28 30 31 32 32 31 30 30 30 29 30 32 32 32 32 31 31 31 31
4 4 5 3 0 3 3 4 6 4 4 4 6 5 3 9 10 10 10 15 17 18 19 23 21 22 24 25 24 26 27 28 30 31 32 32 32 31 31 31 31 31 32 33 33 32 32 31 30
7 4 4 5 5 2 4 3 4 5 6 3 7 5 4 7 11 10 12 14 18 18 19 23 23 23 26 25 25 27 27 29 30 30 30 32 33 31 32 30 32 33 32 32 34 33 33 33 32
5 5 5 3 5 4 4 3 3 4 2 2 4 6 5 8 11 10 12 15 17 20 21 20 21 22 24 27 28 28 28 30 32 34 34 36 36 37 36 34 33 32 33 34 32 34 34 34 33
3 5 4 8 9 5 5 5 2 0 6 2 2 4 9 18 13 9 11 14 17 19 20 19 19 20 21 24 26 27 31 31 33 34 35 36 36 36 37 32 31 33 32 33 33 33 34 33 34
5 4 10 7 7 8 7 4 7 4 3 3 4 7 14 13 11 11 11 13 16 18 18 17 18 19 20 21 23 26 29 30 32 33 35 37 37 37 37 36 33 35 32 32 35 34 32 34 36
3 3 3 2 4 8 8 4 3 10 4 7 10 9 10 12 11 11 10 10 12 12 14 15 16 18 19 21 22 23 25 28 30 31 33 34 37 39 40 40 37 37 35 35 35 35 34 36 35
6 5 2 3 5 7 7 6 5 2 3 6 10 14 9 11 10 10 9 9 8 10 12 14 15 17 18 18 19 20 24 26 28 30 32 35 36 39 40 38 35 31 30 34 35 34 37 36 34
5 3 5 6 9 7 7 4 5 3 2 11 15 11 10 11 11 9 9 8 7 9 10 13 14 15 17 17 17 19 21 24 26 27 29 32 34 36 37 37 35 29 31 31 34 34 37 37 35
3 7 4 6 6 4 6 2 1 4 4 7 8 9 9 13 14 11 9 8 7 6 8 10 12 13 14 15 16 17 18 21 24 25 26 29 31 33 35 36 36 36 35 30 30 33 34 36 33
2 6 5 5 2 3 8 3 7 7 8 9 8 8 7 12 13 12 9 9 7 5 5 8 9 10 11 14 15 15 17 19 23 24 26 27 29 31 32 34 35 35 35 30 33 32 32 34 34
5 5 4 2 3 4 3 7 6 10 11 10 10 8 7 9 14 12 11 9 9 5 4 5 7 8 11 13 13 14 16 19 21 22 25 27 28 29 30 32 34 35 35 30 30 31 31 31 33
6 3 4 2 7 5 5 6 1 8 10 10 9 8 8 7 11 14 13 11 10 6 3 3 5 8 9 11 11 13 15 18 20 23 26 27 28 28 29 31 33 35 36 32 30 31 28 31 35
7 4 4 5 6 4 5 12 2 8 9 13 10 9 9 9 11 19 16 13 11 8 4 1 4 6 8 9 9 11 13 17 21 23 24 25 27 29 29 30 32 34 35 36 33 32 33 29 33
6 4 3 2 1 4 8 7 8 10 10 12 10 13 13 10 18 20 18 16 14 9 6 2 2 6 8 11 14 14 16 18 19 20 22 24 25 28 29 29 30 32 33 33 29 27 31 30 33
4 3 3 1 1 4 3 13 12 12 15 19 20 16 14 8 8 19 20 20 17 12 8 4 1 3 6 9 10 8 11 10 16 20 21 24 25 27 29 30 30 30 32 33 32 28 28 26 29
1 3 3 0 2 2 7 10 5 6 9 12 16 12 14 16 14 13 23 23 18 15 12 7 2 1 4 7 8 9 8 11 19 20 21 22 23 25 27 28 29 29 29 31 31 27 25 25 27
2 4 4 6 3 3 4 6 6 3 8 12 15 13 15 14 13 17 21 25 23 17 14 9 5 1 3 5 8 10 11 12 13 18 20 22 22 24 26 27 28 28 29 29 29 28 24 23 23
3 5 7 3 4 3 0 2 6 1 7 12 15 16 16 17 18 16 23 29 24 20 16 10 7 3 2 4 7 8 10 11 14 18 21 22 23 23 23 25 27 28 29 28 28 29 26 23 21
9 6 7 5 2 3 3 5 5 5 7 4 4 13 16 16 15 19 24 28 25 21 18 13 9 5 2 2 5 8 11 13 17 21 23 24 25 25 23 23 24 25 27 28 27 26 25 26 23
3 6 3 4 3 5 3 2 11 8 7 7 7 9 12 14 15 16 21 24 29 26 21 16 11 8 4 0 4 8 11 13 16 18 21 23 25 26 24 22 22 23 24 25 25 24 26 28 25
5 5 6 8 3 3 2 7 7 7 5 7 7 6 9 12 15 17 24 25 30 28 23 18 15 10 5 1 3 8 11 13 14 15 19 21 22 22 22 20 18 19 21 22 25 23 26 26 25
5 3 4 8 2 3 5 9 10 7 9 8 6 6 10 13 14 16 22 25 29 29 25 21 17 12 7 3 2 6 9 11 13 16 18 18 19 20 20 19 17 18 20 22 24 26 26 24 24
2 5 4 3 3 4 5 6 9 4 6 6 7 9 9 11 13 14 21 24 29 29 25 20 16 12 8 4 2 5 7 10 12 15 16 17 18 19 19 19 17 17 19 21 24 25 24 22 23
2 2 3 3 4 6 1 6 8 12 10 9 10 10 12 15 15 14 20 24 30 30 27 23 18 13 8 4 2 4 5 8 11 14 15 17 17 18 19 19 17 16 20 22 24 24 21 22 23
4 6 8 5 6 2 4 8 3 8 7 8 8 8 8 13 14 14 22 25 28 31 28 25 20 15 9 5 4 4 4 7 10 13 15 16 16 17 17 17 16 14 19 23 23 21 20 21 22
Wind_Direction
14 25 40 37 56 63 89 159 140 117 53 347 44 91 110 79 65 153 211 3 360 7 15 26 13 11 16 19 21 18 14 16 13 9 8 6 2 1 359 355 351 350 350 347 343 341 339 336 332
26 38 55 79 82 74 266 222 168 157 142 166 78 60 55 84 58 107 46 9 11 17 25 28 18 17 17 20 17 18 18 13 12 11 9 7 5 1 357 354 353 347 345 345 344 340 338 338 333
62 52 72 81 101 141 169 173 147 105 132 129 97 53 72 5 40 83 33 20 24 31 32 34 22 20 21 24 23 22 21 19 17 15 11 8 4 1 357 354 352 349 344 340 341 339 338 336 335
71 25 39 72 108 170 157 151 143 124 123 71 117 68 55 29 60 82 49 35 37 40 39 41 27 29 28 29 29 27 24 21 19 17 15 11 6 2 360 356 352 348 346 343 337 338 336 336 334
53 58 59 77 14 73 72 134 145 131 106 46 124 134 88 70 99 85 54 46 46 46 43 39 37 34 33 34 31 27 23 20 18 17 15 12 10 7 3 357 353 350 346 343 341 336 336 333 332
51 89 71 133 151 58 25 128 122 116 115 155 80 99 130 128 105 86 72 60 53 51 49 44 47 37 34 32 28 25 22 18 17 16 14 12 10 8 4 1 356 350 345 344 340 337 333 334 334
106 79 138 134 148 95 161 85 80 118 126 83 145 101 149 126 113 100 78 68 58 55 51 47 48 46 39 32 27 24 20 17 16 15 13 12 11 8 5 1 358 353 347 341 340 338 333 332 336
104 91 113 169 182 192 158 75 74 66 78 116 136 173 183 165 141 110 85 70 61 54 50 46 46 44 37 31 27 24 21 16 15 15 14 13 13 11 9 6 358 353 349 345 339 338 335 333 335
121 77 161 187 162 182 171 120 35 98 105 60 358 129 132 141 145 117 77 63 57 53 50 44 41 37 34 28 24 21 19 18 18 16 16 15 14 11 8 5 359 357 352 347 342 338 336 335 333
70 111 196 177 163 157 153 119 148 111 107 47 62 81 127 139 132 96 71 57 51 46 43 40 37 34 29 27 20 19 18 20 20 17 15 14 12 12 8 7 4 2 354 350 345 340 335 339 335
27 120 147 13 164 124 130 111 120 127 229 201 180 160 145 129 113 106 93 75 65 56 45 36 34 30 27 24 20 21 19 16 16 16 13 12 12 11 10 7 1 357 355 353 347 342 335 338 338
93 47 91 94 115 99 127 123 100 232 243 163 153 148 143 142 137 127 116 99 84 64 47 35 31 30 30 27 27 24 20 16 16 15 14 13 10 9 9 7 4 350 349 346 347 341 336 334 337
80 122 51 80 88 78 100 76 161 215 43 117 137 148 153 151 142 141 128 114 99 69 47 35 31 30 28 26 23 21 17 14 15 14 14 12 11 9 6 6 6 355 350 344 342 341 340 336 332
83 79 91 41 79 84 109 150 6 229 149 127 149 169 167 161 166 157 149 132 109 84 54 36 33 30 26 26 25 21 16 12 11 15 13 13 11 9 6 5 4 360 356 342 340 339 338 336 335
72 73 53 25 39 115 137 240 228 173 160 168 187 185 175 184 178 174 159 138 140 107 63 37 32 27 23 24 23 19 16 12 16 15 15 14 14 10 7 5 5 1 360 354 348 340 343 342 341
66 58 118 247 168 188 100 259 207 164 161 193 199 200 189 195 188 176 165 157 156 134 77 40 28 20 22 21 18 19 17 17 19 18 17 15 13 11 7 6 5 3 3 358 347 345 341 342 343
14 183 188 249 206 152 180 265 227 162 175 200 207 204 203 198 195 184 178 175 166 155 118 48 19 17 13 15 18 20 21 20 20 21 19 15 14 10 8 7 6 4 7 2 350 345 341 337 342
189 202 222 209 216 175 193 252 192 193 192 211 205 211 209 199 201 189 182 180 169 165 161 106 20 8 5 7 14 20 18 21 21 22 18 17 16 12 7 6 7 6 7 4 352 348 346 344 342
131 121 190 249 198 169 231 281 247 207 215 224 217 213 215 204 206 192 185 181 174 171 171 165 6 6 354 6 12 11 12 15 20 23 20 19 14 11 11 6 7 7 6 1 353 349 347 347 351
109 126 221 305 195 184 343 268 247 199 221 214 214 212 210 187 183 190 184 182 179 179 175 167 80 7 6 19 19 9 7 4 16 18 17 14 14 13 12 9 7 8 5 4 359 354 352 346 353
89 173 179 173 29 283 342 286 245 246 231 218 221 213 206 195 186 182 183 185 183 181 178 175 157 354 16 18 7 9 5 6 9 9 10 12 9 9 11 9 8 7 7 2 360 353 352 346 347
176 156 129 123 105 249 26 284 300 272 255 227 223 204 198 189 190 180 177 183 183 181 176 171 168 174 34 15 9 17 21 17 1 357 359 1 1 2 4 7 8 8 6 4 3 358 351 353 344
170 115 112 96 88 48 359 353 266 294 263 245 222 210 200 192 183 174 179 183 182 177 175 170 165 151 55 16 16 17 18 10 356 354 355 353 350 352 356 1 4 7 6 3 4 5 354 354 350
152 83 57 70 65 356 257 184 255 210 216 266 225 205 197 188 180 172 176 179 175 174 173 171 166 153 120 6 13 15 13 2 355 355 356 355 352 353 350 353 360 5 5 4 2 5 358 357 355
95 95 1 354 17 223 350 224 254 265 244 222 238 203 195 182 171 163 163 169 172 174 174 171 170 159 163 319 16 15 8 359 359 357 0 359 356 356 353 352 354 1 3 5 4 4 2 5 354
187 153 159 198 186 257 101 238 247 228 250 243 240 209 169 175 178 174 172 171 174 177 175 174 171 167 171 155 24 10 2 1 2 2 4 3 357 358 353 351 356 0 2 3 8 1 4 7 360
192 195 157 105 72 62 231 276 296 273 255 247 221 177 177 181 179 174 170 172 174 178 178 176 172 171 168 149 41 10 4 9 5 6 6 5 3 2 356 358 357 3 3 6 9 4 1 357 359
213 169 93 345 148 251 276 277 241 271 257 229 215 212 189 180 178 173 171 172 177 180 176 176 176 171 167 142 63 21 18 12 12 9 7 9 9 6 4 4 3 8 7 10 10 6 2 357 358
142 253 19 117 161 174 211 257 222 225 207 213 224 200 188 186 185 176 171 172 175 176 174 175 174 171 165 155 101 64 30 17 18 15 11 14 11 11 8 3 4 12 15 11 10 5 2 1 357
177 203 178 139 232 220 151 265 274 229 225 214 244 211 185 184 182 173 167 162 167 172 175 176 173 170 171 160 133 93 48 29 26 21 17 19 17 17 13 6 5 14 16 17 9 2 1 1 360